Погода в Ярыгине

Россия / Курская область     51°12′37″N   36°43′24″E
темп.,
°C
ветер,
м/с
пор.,
м/с
влажн.,
%
обл.,
%
осадки,
мм/ч
давл.,
гПа
погр.,
м
23 мая, пн
пн2300:00+8с499299 0.2 1002432
03:00+6с49914 0.2 1004275
06:00+3с38925 0.0 1006232
09:00+8ссв56687 0.0 1007758
12:00+11с565222 0.0 10081836
15:00+12ссз555099 0.0 10082034
18:00+10с466352 0.0 1009964
21:00+6зсз22785 0.0 101011
24 мая, вт
вт2400:00+5зюз34805 0.0 101054
03:00+3з38885 0.0 1011123
06:00+4з38835 0.0 1011179
09:00+11зсз5866100 0.0 1011679
12:00+13сз6759100 0.1 10101757
15:00+13сз6750100 0.1 10111485
18:00+14зсз476566 0.0 10111466
21:00+9з488998 0.3 1013134
25 мая, ср
ср2500:00+8зсз36935 0.1 1014106
03:00+6сз22945 0.1 101531
06:00+7сз248998 0.0 1016129
09:00+12сз3578100 0.0 1016543
12:00+16сз5862100 0.0 10161240
15:00+17сз685995 0.3 10161518
18:00+17сз35705 0.5 10161120
21:00+11з228453 1.9 101719
26 мая, чт
чт2600:00+11зюз3487100 0.0 101771
03:00+10зюз49905 0.0 1016160
06:00+10юз41186100 0.0 1015223
09:00+16юз6117095 0.0 1013513
12:00+18юз9135692 0.0 10121361
15:00+13юз101679100 0.4 10111087
18:00+10юз81496100 4.5 1009811
21:00+12зюз6149493 4.6 1009551
27 мая, пт
пт2700:00+10з61593100 0.2 1009497
03:00+10з7159550 0.2 1008576
06:00+10зсз71390100 0.0 1009866
09:00+11зсз71289100 0.1 10111099
12:00+12зсз71182100 0.1 10121223
15:00+13з7127569 0.1 10131368
18:00+15з6117086 0.1 10121500
21:00+10зюз410885 0.3 1012195